Weather History for KN60 - February, 2013

Change the Weather History Date:

Wednesday, February 13, 2013

  Actual Average Record
Temperature  
Mean Temperature 32 °F -  
Max Temperature 35 °F 24 °F 45 °F (2006)
Min Temperature 28 °F 6 °F -20 °F (2007)
Degree Days  
Heating Degree Days 33    
Month to date heating degree days 581  
Moisture  
Dew Point 28 °F    
Average Humidity 86    
Maximum Humidity 100    
Minimum Humidity 72    
Precipitation  
Precipitation 0.15 in - - ()
Month to date precipitation 0.42  
Year to date precipitation 0.92  
Sea Level Pressure  
Sea Level Pressure 29.71 in    
Wind  
Wind Speed 10 mph (WNW)    
Max Wind Speed 26 mph    
Max Gust Speed 32 mph    
Averages and records for this station are not official NWS values.
T = Trace of Precipitation, MM = Missing Value Source: NWS Daily Summary

Daily Weather History Graph

Daily Weather History Graph

Search for Another Location

Airport or City:

Trip Planner

Search our weather history database for the weather conditions in past years. The results will help you decide how hot, cold, wet, or windy it might be!

Date:

Astronomy

Feb. 13, 2013 Rise Set
Actual Time 7:54 AM CST 6:06 PM CST
Civil Twilight 7:22 AM CST 6:38 PM CST
Nautical Twilight 6:46 AM CST 7:14 PM CST
Astronomical Twilight 6:10 AM CST 7:50 PM CST
Moon 9:04 AM CST (2/13) 10:33 PM CST (2/13)
Length of Visible Light 11h 15m
Length of Day
10h 12m
Waxing Crescent, 14% of the Moon is Illuminated
Feb 13
Waxing Crescent
Feb 17
First Quarter
Feb 25
Full
Mar 4
Last Quarter
Mar 11
New

Hourly Weather History & Observations

Time (CST) Temp. Windchill Dew Point Humidity Pressure Visibility Wind Dir Wind Speed Gust Speed Precip Events Conditions
12:52 AM 30.0 °F 21.1 °F 23.0 °F 75% 29.80 in - WNW 10.4 mph - N/A   Unknown
1:52 AM 32.0 °F 23.6 °F 25.0 °F 75% 29.78 in - West 10.4 mph - N/A   Unknown
2:52 AM 30.9 °F 23.5 °F 25.0 °F 79% 29.75 in - West 8.1 mph - N/A   Unknown
3:52 AM 30.0 °F 26.5 °F 24.1 °F 79% 29.73 in - West 3.5 mph - N/A   Unknown
4:52 AM 28.9 °F - 24.1 °F 82% 29.70 in - Calm Calm - N/A   Unknown
5:52 AM 28.9 °F - 25.0 °F 85% 29.68 in - Calm Calm - N/A   Unknown
6:52 AM 28.9 °F - 27.0 °F 92% 29.66 in - Calm Calm - 0.02 in   Unknown
7:52 AM 28.9 °F 25.2 °F 27.0 °F 92% 29.64 in - SSW 3.5 mph - 0.05 in   Unknown
8:52 AM 28.9 °F - 28.0 °F 96% 29.64 in - Calm Calm - 0.04 in   Unknown
9:52 AM 30.9 °F - 30.0 °F 96% 29.62 in - Calm Calm - 0.02 in   Unknown
10:52 AM 32.0 °F 24.8 °F 30.0 °F 92% 29.62 in - West 8.1 mph - 0.02 in   Unknown
11:52 AM 34.0 °F 22.7 °F 30.0 °F 85% 29.62 in - WNW 19.6 mph - N/A   Unknown
12:52 PM 35.1 °F 23.0 °F 30.9 °F 85% 29.63 in - NW 24.2 mph - N/A   Unknown
1:52 PM 35.1 °F 22.5 °F 30.0 °F 82% 29.63 in - NW 26.5 mph 32.2 mph N/A   Unknown
2:52 PM 34.0 °F 22.7 °F 30.0 °F 85% 29.66 in - NNW 19.6 mph - N/A   Unknown
3:52 PM 33.1 °F 21.2 °F 30.0 °F 89% 29.70 in - NNW 20.7 mph - N/A   Unknown
4:52 PM 32.0 °F 21.2 °F 28.9 °F 88% 29.73 in - North 16.1 mph - N/A   Unknown
5:52 PM 32.0 °F 22.5 °F 28.9 °F 88% 29.76 in - NNW 12.7 mph - N/A   Unknown
6:52 PM 30.9 °F 22.8 °F 28.9 °F 92% 29.79 in - NW 9.2 mph - N/A   Unknown
7:52 PM 30.9 °F 24.3 °F 28.9 °F 92% 29.80 in - WNW 6.9 mph - N/A   Unknown
8:52 PM 30.9 °F 23.5 °F 28.9 °F 92% 29.79 in - NW 8.1 mph - 0.01 in   Unknown
9:52 PM 30.9 °F 22.8 °F 28.9 °F 92% 29.80 in - WNW 9.2 mph - N/A   Unknown
10:52 PM 32.0 °F 27.5 °F 30.0 °F 92% 29.79 in - WNW 4.6 mph - N/A   Unknown
11:52 PM 30.9 °F 18.1 °F 26.1 °F 82% 29.80 in - WNW 21.9 mph - N/A   Unknown